[[{"header":{"parameterUnit":"m.s-1","parameterCategory":1,"la1":30.2991,"la2":30.254,"lo1":-89.0895,"lo2":-89.0444,"dy":0.0017,"dx":0.0017,"nx":28,"ny":28,"refTime":"2024-03-04T09:00:00:Z","depth":0,"parameterNumber":2,"parameterNumberName":"U-component_of_WINDS"},"data":[0,0,0,0,0,0,0,0,0,0,0,0,0,0,0,0,0,0,0,0,0,0,0,0,0,0,0,0,0,0,0,0,0,0,0,0,0,0,0,0,0,0,0,0,0,0,0,0,0,0,0,0,0,0,0,0,0,0,-3.9555,-3.9555,0,-3.958,-3.958,-3.9581,-3.9479,-3.9476,-3.9473,-3.947,-3.9497,-3.95,-3.9503,0,0,0,0,0,0,0,0,0,0,0,0,0,-3.9421,-3.9424,-3.9555,-3.9555,-3.9555,-3.958,-3.958,-3.9581,-3.9479,-3.9475,-3.9472,-3.9468,-3.9495,-3.95,-3.9504,0,0,0,0,0,0,0,0,0,0,0,0,0,-3.9466,-3.9425,-3.9555,-3.9508,-3.9504,-3.958,-3.958,-3.9581,-3.948,-3.9475,-3.9471,-3.9467,-3.9494,-3.9499,-3.9504,-3.9627,0,0,-3.952,-3.9523,0,0,0,0,0,0,0,0,-3.9464,-3.9471,-3.9514,-3.9511,-3.9507,-3.9521,-3.9543,-3.9596,-3.9481,-3.9489,-3.947,-3.9464,-3.9509,-3.9512,-3.9527,-3.9629,-3.963,-3.9521,-3.9524,-3.9526,-3.9528,0,0,0,0,0,0,0,-3.9461,-3.9469,-3.9565,-3.9515,-3.951,-3.9486,-3.9487,-3.9553,-3.9524,-3.9488,-3.9481,-3.9485,-3.9506,-3.9522,-3.9527,-3.963,-3.9521,-3.9525,-3.9529,-3.9531,-3.9836,-3.9841,0,0,0,0,0,0,-3.9463,-3.9467,-3.9564,-3.9565,-3.9474,-3.9492,-3.9494,-3.9521,-3.9523,-3.9519,-3.9489,-3.948,-3.9515,-3.9521,-3.9527,-3.9672,-3.9526,-3.9531,-3.9534,-3.9831,-3.9837,-3.9842,0,0,0,0,0,0,-3.9461,-3.9473,-3.9563,-3.9515,-3.9524,-3.9499,-3.9531,-3.9524,-3.954,-3.9523,-3.9518,-3.9511,-3.9512,-3.952,-3.9604,-3.9672,-3.9534,-3.9538,-3.9825,-3.9833,-3.984,-3.9963,0,0,0,0,0,0,-3.9458,-3.9473,-3.9518,-3.9516,-3.9527,-3.9638,-3.9535,-3.9528,-3.955,-3.9539,-3.9543,-3.9539,-3.9509,-3.9596,-3.9609,-3.9677,-3.9543,-3.9819,-3.9829,-3.9837,-3.9953,-3.9974,-3.9992,0,0,0,0,0,-3.9453,-3.9552,-3.9521,-3.9533,-3.9584,-3.9642,-3.9648,-3.9612,-3.9556,-3.9602,-3.9591,-3.9539,-3.9663,-3.9606,-3.9619,-3.9689,-3.9814,-3.9826,-3.9837,-3.9944,-3.997,-3.9991,0,0,0,0,0,0,-3.9562,-3.9551,-3.9516,-3.9617,-3.9632,-3.9625,-3.9682,-3.964,-3.967,-3.9659,-3.9612,-3.9614,-3.9706,-3.9706,-3.9643,-3.981,-3.9729,-3.9743,-3.9806,-3.983,-3.9849,-3.9847,-3.9547,0,0,0,0,0,-3.9598,-3.9646,-3.9634,-3.9724,-3.9733,-3.9707,-3.9731,-3.9702,-3.9715,-3.972,-3.9715,-3.9731,-3.9773,-3.9802,-3.9839,-3.9953,-3.9953,-4.0008,-4.0027,-4.0043,-4.0056,-4.0118,-4.0142,-3.9879,-3.9879,-3.9879,0,0,-3.9673,-3.9672,-3.9705,-3.9746,-3.9754,-3.9805,-3.9712,-3.977,-3.9809,-3.9729,-3.9807,-3.9805,-3.9819,-3.9919,-3.9962,-3.9921,-4.0129,-4.0058,-4.0071,-4.0074,-4.0132,-4.0156,-4.0179,-3.9886,-3.9885,-3.9884,0,0,-3.9834,-3.9839,-3.9915,-3.9925,-3.9938,-3.992,-3.9939,-3.994,-3.9935,-4.0013,-3.9955,-4.0,-4.0074,-4.0087,-4.0103,-4.0273,-4.0226,-4.0287,-4.0388,-4.0449,-4.0469,-4.0488,-4.0549,-4.0571,-4.03,-4.03,-4.03,0,-3.9925,-4.0,-3.996,-4.0023,-4.0043,-3.9974,-4.0052,-4.0063,-4.0089,-4.0105,-4.0059,-4.0151,-4.0155,-4.0257,-4.0299,-4.0314,-4.0335,-4.0285,-4.047,-4.0487,-4.0504,-4.0562,-4.0585,-4.0307,-4.0307,-4.0306,-4.0305,0,-4.0112,-4.0165,-4.0225,-4.0251,-4.0279,-4.0349,-4.032,-4.0353,-4.0322,-4.031,-4.0392,-4.0395,-4.0433,-4.0455,-4.0426,-4.0554,-4.0529,-4.0477,-4.0395,-4.0537,-4.0591,-4.0613,-4.0318,-4.0315,-4.0313,-4.0311,0,0,-4.034,-4.0346,-4.0368,-4.038,-4.0391,-4.0432,-4.05,-4.0537,-4.0566,-4.0587,-4.0643,-4.0709,-4.0662,-4.068,-4.0652,-4.0705,-4.0841,-4.0647,-4.0646,-4.0683,-4.0984,-4.1022,-4.1049,-4.081,-4.0814,-4.0818,-4.0983,0,-4.05,-4.0615,-4.0582,-4.0698,-4.0747,-4.0684,-4.0744,-4.0757,-4.0749,-4.079,-4.078,-4.0827,-4.0761,-4.0772,-4.0822,-4.0814,-4.0901,-4.0801,-4.0863,-4.0866,-4.0861,-4.1076,-4.1117,-4.1272,-4.1003,-4.1007,-4.101,0,-4.07,-4.0729,-4.085,-4.0854,-4.0874,-4.0928,-4.096,-4.1001,-4.1016,-4.1006,-4.1028,-4.099,-4.1058,-4.0977,-4.107,-4.1004,-4.1027,-4.1027,-4.1033,-4.1036,-4.0946,-4.1086,-4.1321,-4.1344,-4.1042,-4.104,-4.1037,0,-4.0855,-4.0925,-4.1006,-4.1018,-4.1025,-4.1065,-4.107,-4.1081,-4.1106,-4.1135,-4.1151,-4.1189,-4.1209,-4.1239,-4.1212,-4.1155,-4.1311,-4.1227,-4.1305,-4.1306,-4.1339,-4.1338,-4.1581,-4.1356,-4.1355,-4.1355,-4.1355,0,-4.1036,-4.1112,-4.1076,-4.1127,-4.1212,-4.1174,-4.1259,-4.1257,-4.1268,-4.1317,-4.1265,-4.1313,-4.1275,-4.132,-4.13,-4.1381,-4.1391,-4.1385,-4.1379,-4.1389,-4.139,-4.1404,-4.1392,-4.1361,-4.136,-4.1359,-4.1358,0,-4.1222,-4.1201,-4.1287,-4.1287,-4.1289,-4.1352,-4.1353,-4.14,-4.1388,-4.1452,-4.1465,-4.1447,-4.1497,-4.1474,-4.1526,-4.1513,-4.1618,-4.1597,-4.1613,-4.1607,-4.1687,-4.168,-4.1947,-4.1981,-4.1734,-4.1736,-4.1738,0,-4.1339,-4.1396,-4.1404,-4.1433,-4.1442,-4.149,-4.1516,-4.1483,-4.1512,-4.1535,-4.158,-4.1626,-4.1661,-4.1745,-4.1737,-4.1778,-4.1758,-4.1849,-4.1763,-4.1773,-4.1759,-4.1756,-4.1762,-4.1866,-4.1869,-4.1871,-4.1873,0,-4.1547,-4.1535,-4.1574,-4.1611,-4.1644,-4.1671,-4.1694,-4.1722,-4.1689,-4.1725,-4.1776,-4.1804,-4.1859,-4.1906,-4.1942,-4.1947,-4.1906,-4.19,-4.192,-4.1932,-4.1938,-4.1936,-4.1659,-4.1894,-4.1892,-4.189,-4.1889,-4.1888,-4.1702,-4.1751,-4.1765,-4.1811,-4.1825,-4.1849,-4.1894,-4.1888,-4.193,-4.1972,-4.195,-4.2011,-4.2026,-4.2071,-4.2083,-4.213,-4.2094,-4.2123,-4.213,-4.2138,-4.2149,-4.1932,-4.2136,-4.2136,-4.2135,-4.2135,-4.2134,0,-4.1908,-4.1915,-4.1958,-4.1992,-4.2029,-4.1987,-4.2011,-4.2045,-4.2099,-4.2117,-4.2153,-4.2213,-4.2259,-4.2256,-4.2299,-4.2337,-4.2319,-4.235,-4.2346,-4.2349,-4.2178,-4.2157,-4.2364,-4.2364,-4.2364,-4.2364,-4.2364,-4.2363,-4.202,-4.2101,-4.2091,-4.2179,-4.2185,-4.2243,-4.2261,-4.2283,-4.2297,-4.2367,-4.2405,-4.2403,-4.2413,-4.2456,-4.2497,-4.2495,-4.2513,-4.2551,-4.2542,-4.2383,-4.236,-4.2339,-4.2318,-4.2555,-4.2556,-4.2708,-4.271,-4.2711]},{"header":{"parameterUnit":"m.s-1","parameterCategory":1,"la1":30.2991,"la2":30.254,"lo1":-89.0895,"lo2":-89.0444,"dy":0.0017,"dx":0.0017,"nx":28,"ny":28,"refTime":"2024-03-04T09:00:00:Z","depth":0,"parameterNumber":3,"parameterNumberName":"V-component_of_WINDS"},"data":[0,0,0,0,0,0,0,0,0,0,0,0,0,0,0,0,0,0,0,0,0,0,0,0,0,0,0,0,0,0,0,0,0,0,0,0,0,0,0,0,0,0,0,0,0,0,0,0,0,0,0,0,0,0,0,0,0,0,0.6992,0.6992,0,0.6984,0.6984,0.6984,0.6986,0.6986,0.6987,0.6987,0.6977,0.6977,0.6976,0,0,0,0,0,0,0,0,0,0,0,0,0,0.701,0.701,0.6992,0.6992,0.6992,0.6984,0.6984,0.6984,0.6986,0.6986,0.6987,0.6987,0.6977,0.6977,0.6976,0,0,0,0,0,0,0,0,0,0,0,0,0,0.7002,0.701,0.6992,0.6992,0.6992,0.6984,0.6984,0.6984,0.6986,0.6986,0.6987,0.6987,0.6977,0.6977,0.6976,0.6967,0,0,0.6974,0.6974,0,0,0,0,0,0,0,0,0.7003,0.7002,0.6992,0.6992,0.6992,0.6987,0.6987,0.6978,0.6986,0.6988,0.6987,0.6987,0.698,0.6979,0.6977,0.6967,0.6967,0.6974,0.6974,0.6974,0.6973,0,0,0,0,0,0,0,0.7003,0.7002,0.6989,0.6992,0.6992,0.6993,0.6992,0.6985,0.6983,0.6988,0.6988,0.6988,0.698,0.6978,0.6977,0.6966,0.6974,0.6974,0.6973,0.6973,0.6952,0.6952,0,0,0,0,0,0,0.7004,0.7002,0.6989,0.6989,0.6998,0.6992,0.6991,0.6988,0.6983,0.6982,0.6987,0.6988,0.6979,0.6978,0.6977,0.6968,0.6974,0.6973,0.6973,0.6952,0.6952,0.6952,0,0,0,0,0,0,0.7004,0.7003,0.699,0.6996,0.6994,0.6992,0.6988,0.6988,0.6985,0.6982,0.6982,0.6985,0.6979,0.6977,0.6971,0.6968,0.6973,0.6972,0.6953,0.6952,0.6952,0.6949,0,0,0,0,0,0,0.7005,0.7003,0.6999,0.6996,0.6994,0.6983,0.6988,0.6987,0.6985,0.6985,0.698,0.698,0.6979,0.6971,0.697,0.6967,0.6972,0.6953,0.6952,0.6952,0.695,0.6949,0.6948,0,0,0,0,0,0.7005,0.6997,0.6999,0.6997,0.6989,0.6983,0.6982,0.6982,0.6984,0.6981,0.698,0.698,0.6968,0.6971,0.6969,0.6966,0.6953,0.6953,0.6952,0.695,0.6949,0.6948,0,0,0,0,0,0,0.6999,0.6997,0.6998,0.6989,0.6986,0.6984,0.6979,0.698,0.6976,0.6977,0.6976,0.6975,0.6969,0.6966,0.6969,0.6959,0.6961,0.696,0.696,0.6959,0.6959,0.6959,0.6971,0,0,0,0,0,0.6997,0.6992,0.6991,0.6983,0.6982,0.6981,0.6978,0.6978,0.6975,0.6974,0.6972,0.6969,0.6965,0.6962,0.6958,0.695,0.695,0.6947,0.6946,0.6946,0.6945,0.6943,0.6942,0.6951,0.6951,0.6951,0,0,0.6991,0.699,0.6987,0.6981,0.6979,0.6976,0.6979,0.6974,0.6972,0.6973,0.6967,0.6966,0.6962,0.6956,0.6953,0.6954,0.6943,0.6945,0.6945,0.6944,0.6943,0.6942,0.6941,0.695,0.695,0.695,0,0,0.698,0.6978,0.6972,0.6971,0.6969,0.6969,0.6968,0.6965,0.6965,0.6959,0.6961,0.6958,0.695,0.6949,0.6947,0.6939,0.694,0.6938,0.6935,0.6933,0.6932,0.6932,0.693,0.693,0.6937,0.6937,0.6937,0,0.6973,0.6968,0.6969,0.6965,0.6963,0.6966,0.6961,0.696,0.6956,0.6955,0.6957,0.695,0.6947,0.6942,0.694,0.6938,0.6938,0.6938,0.6932,0.6932,0.6931,0.693,0.6929,0.6937,0.6937,0.6937,0.6937,0,0.6961,0.6957,0.6953,0.6951,0.6949,0.6944,0.6946,0.6944,0.6945,0.6946,0.6941,0.6939,0.6936,0.6935,0.6935,0.693,0.6931,0.6932,0.6935,0.693,0.6929,0.6929,0.6937,0.6937,0.6937,0.6937,0,0,0.6943,0.6944,0.6943,0.6943,0.6943,0.694,0.6937,0.6935,0.6934,0.6932,0.693,0.6925,0.6928,0.6926,0.6926,0.6925,0.6921,0.6927,0.6927,0.6927,0.6918,0.6917,0.6916,0.6922,0.6922,0.6922,0.6918,0,0.6932,0.6927,0.693,0.6924,0.6922,0.6926,0.6923,0.6923,0.6924,0.6923,0.6923,0.6921,0.6923,0.6923,0.6921,0.6922,0.6919,0.6922,0.6921,0.6921,0.6922,0.6915,0.6914,0.691,0.6918,0.6918,0.6918,0,0.6919,0.6918,0.6913,0.6916,0.6915,0.6912,0.6913,0.6911,0.6912,0.6913,0.6913,0.6915,0.6912,0.6916,0.6913,0.6915,0.6915,0.6916,0.6916,0.6916,0.6919,0.6916,0.6909,0.6908,0.6917,0.6917,0.6917,0,0.6908,0.6906,0.6903,0.6904,0.6906,0.6905,0.6906,0.6907,0.6907,0.6907,0.6907,0.6907,0.6907,0.6907,0.6909,0.6911,0.6907,0.691,0.6909,0.6909,0.6907,0.6907,0.6901,0.6906,0.6906,0.6906,0.6906,0,0.6896,0.6893,0.6899,0.6897,0.6895,0.6899,0.6896,0.6897,0.6899,0.6899,0.6902,0.6901,0.6904,0.6904,0.6906,0.6905,0.6905,0.6906,0.6907,0.6906,0.6906,0.6906,0.6906,0.6906,0.6906,0.6906,0.6906,0,0.6883,0.6887,0.6885,0.6889,0.689,0.6888,0.6891,0.689,0.6893,0.6892,0.6892,0.6896,0.6896,0.6899,0.6899,0.6901,0.69,0.69,0.69,0.69,0.6899,0.69,0.6892,0.6892,0.6898,0.6897,0.6897,0,0.6875,0.6873,0.6878,0.6879,0.688,0.688,0.6881,0.6886,0.6886,0.6889,0.6888,0.6889,0.689,0.6891,0.6894,0.6895,0.6896,0.6894,0.6896,0.6897,0.6897,0.6898,0.6898,0.6893,0.6893,0.6893,0.6893,0,0.6862,0.6865,0.6866,0.6868,0.6869,0.6871,0.6873,0.6874,0.6879,0.688,0.6881,0.6882,0.6884,0.6886,0.6888,0.689,0.6893,0.6892,0.6892,0.6892,0.6892,0.6893,0.6899,0.6892,0.6892,0.6892,0.6892,0.6892,0.6852,0.6851,0.6856,0.6857,0.686,0.6863,0.6863,0.6867,0.6868,0.6871,0.6874,0.6876,0.6879,0.6883,0.6884,0.6886,0.6887,0.6887,0.6887,0.6887,0.6887,0.6892,0.6886,0.6886,0.6886,0.6886,0.6886,0,0.6839,0.6843,0.6845,0.6849,0.6851,0.6855,0.6859,0.686,0.6862,0.6865,0.6868,0.687,0.6873,0.6877,0.688,0.6881,0.6882,0.6881,0.6881,0.6882,0.6885,0.6885,0.688,0.688,0.688,0.688,0.688,0.688,0.6833,0.6834,0.6838,0.684,0.6844,0.6846,0.6848,0.6852,0.6855,0.6858,0.6861,0.6864,0.6868,0.6872,0.6875,0.6877,0.6878,0.6877,0.6878,0.6881,0.6882,0.6882,0.6882,0.6877,0.6877,0.6875,0.6875,0.6875]}]]